Retour au catalogue

FENGYUN 1C DEB

ActifPO
NORAD 31372·DEBRIS·🇨🇳 China

Lancé May 10, 1999 depuis Taiyuan Satellite Launch Center

Loading…

Prochains Passages (prochaines 24 heures)

TLE

FraisSource: Space-Track

Époque: Sep 14, 2026, 08:07 UTC

1 31372U 99025BSC 26257.33831838  .00001904  00000-0  77725-3 0  9995
2 31372  99.3790 273.3790 0032095  10.2170 349.9655 14.28386518997839

Suivez FENGYUN 1C DEB en temps réel avec AllMySat

Download on the App Store